Weather reports worldwide

Advertisment
Amsterdam Airport, Netherlands (6240): temperature & dewpoint: 22.10.2020 15:00:00 - 28.10.2020 15:00:00 (CET)Amsterdam Airport, Netherlands (6240): temperature 5cm: 22.10.2020 15:00:00 - 28.10.2020 15:00:00 (CET)Amsterdam Airport, Netherlands (6240): wind speed & gusts: 22.10.2020 15:00:00 - 28.10.2020 15:00:00 (CET)Amsterdam Airport, Netherlands (6240): wind direction: 22.10.2020 15:00:00 - 28.10.2020 15:00:00 (CET)Amsterdam Airport, Netherlands (6240): reduced air pressure: 22.10.2020 15:00:00 - 28.10.2020 15:00:00 (CET)Amsterdam Airport, Netherlands (6240): visibility: 22.10.2020 15:00:00 - 28.10.2020 15:00:00 (CET)Amsterdam Airport, Netherlands (6240): precipitation: 22.10.2020 15:00:00 - 28.10.2020 15:00:00 (CET)
Date & Time tt [°C] td [°C] tt 5cm [°C] ff [km/h] ff [kn] fx [km/h] fx [kn] dd ppp [hPa] vv [km] rr [mm]
28.10.2020 15:00:00 11,2 8,8 10,7 31 17 47 25 SSW 1004,5 10 0,0
28.10.2020 14:00:00 10,5 8,1 9,5 26 14 54 29 SW 1005,1 10 0,6
28.10.2020 13:00:00 11,6 7,9 11,2 37 20 58 31 SSW 1005,2 10 0,0
28.10.2020 12:00:00 12,8 9,1 13,1 35 19 54 29 SSW 1004,9 10 0,0
28.10.2020 11:00:00 12,4 8,8 11,6 34 18 47 25 SSW 1004,4 10 0,0
28.10.2020 10:00:00 11,2 8,3 11,2 28 15 40 21 SSW 1003,9 10 0,0
28.10.2020 09:00:00 9,7 7,4 8,9 22 12 32 18 S 1003,8 10 0,0
28.10.2020 08:00:00 9,6 7,4 8,8 24 13 36 19 SSW 1003,3 10 0,0
28.10.2020 07:00:00 9,4 7,5 8,6 24 13 32 18 S 1003,2 10 0,0
28.10.2020 06:00:00 9,7 7,6 9,0 21 11 40 21 S 1002,6 10 0,2
28.10.2020 05:00:00 10,3 8,0 9,5 15 8 29 16 S 1002,5 10 0,2
28.10.2020 04:00:00 9,7 7,4 8,3 15 8 18 10 SSW 1001,6 10 0,0
28.10.2020 03:00:00 8,7 6,3 7,5 18 10 36 19 SW 1001,6 10 0,0
28.10.2020 02:00:00 11,3 7,2 9,6 22 12 36 19 SW 1001,2 10 0,0
28.10.2020 01:00:00 11,5 7,4 9,6 18 10 40 21 WSW 1000,3 10 0,0
28.10.2020 00:00:00 12,1 10,6 11,3 28 15 47 25 SW 999,0 10 0,0
27.10.2020 23:00:00 11,8 10,6 11,2 34 18 50 27 SSW 998,2 10 0,3
27.10.2020 22:00:00 10,8 10,0 10,3 34 18 47 25 S 997,7 7 0,9
27.10.2020 21:00:00 10,2 9,3 9,9 34 18 47 25 S 997,6 4,0 0,9
27.10.2020 20:00:00 9,8 9,0 9,6 31 17 54 29 S 998,1 4,5 0,4
27.10.2020 19:00:00 9,7 8,6 9,4 34 18 50 27 S 998,7 7 0,7
27.10.2020 18:00:00 10,8 7,3 10,2 29 16 50 27 S 999,1 10 0,0
27.10.2020 17:00:00 11,1 7,5 10,5 26 14 36 19 S 999,6 10 0,0
27.10.2020 16:00:00 11,0 8,0 10,6 26 14 43 23 S 1000,3 10 0,0
27.10.2020 15:00:00 10,6 8,5 10,4 28 15 43 23 S 1001,3 10 0,0
27.10.2020 14:00:00 10,9 8,5 10,8 31 17 47 25 SSW 1001,7 10 0,0
27.10.2020 13:00:00 11,1 8,0 11,0 34 18 47 25 SSW 1002,0 10 0,0
27.10.2020 12:00:00 10,9 8,1 11,1 31 17 43 23 S 1002,3 10 0,0
27.10.2020 11:00:00 10,3 7,8 10,6 34 18 43 23 SSW 1002,4 10 0,0
27.10.2020 10:00:00 10,0 7,7 10,0 24 13 36 19 S 1002,3 10 0,0
27.10.2020 09:00:00 8,9 7,4 9,0 22 12 32 18 S 1002,4 10 0,0
27.10.2020 08:00:00 8,2 7,0 7,5 24 13 32 18 S 1002,2 10 0,0
27.10.2020 07:00:00 8,2 7,1 7,6 22 12 32 18 S 1001,7 10 0,0
27.10.2020 06:00:00 8,3 7,3 7,6 18 10 25 14 S 1001,3 10 0,0
27.10.2020 05:00:00 8,7 7,7 8,0 18 10 29 16 S 1001,0 10 0,0
27.10.2020 04:00:00 8,9 7,8 8,1 18 10 32 18 SSW 1000,6 10 0,1
27.10.2020 03:00:00 9,2 7,9 8,3 21 11 36 19 SSW 1000,9 10 0,9
27.10.2020 02:00:00 9,5 8,3 9,1 26 14 40 21 S 1000,9 10 1,1
27.10.2020 01:00:00 9,3 8,1 8,7 16 9 25 14 SSW 1000,4 10 1,0
27.10.2020 00:00:00 10,0 8,5 9,4 18 10 32 18 SSW 1000,4 10 0,3
26.10.2020 23:00:00 10,0 8,5 9,4 24 13 36 19 SSW 999,8 10 0,1
26.10.2020 22:00:00 10,0 8,3 9,2 24 13 43 23 SSW 999,6 10 0,3
26.10.2020 21:00:00 10,6 8,4 9,8 34 18 43 23 SW 999,3 10 0,3
26.10.2020 20:00:00 10,7 7,2 9,9 29 16 43 23 SSW 998,7 10 0,0
26.10.2020 19:00:00 10,9 6,9 10,1 26 14 40 21 SSW 998,9 10 0,0
26.10.2020 18:00:00 10,9 6,6 9,7 18 10 40 21 SSW 998,8 10 0,0
26.10.2020 17:00:00 11,4 7,0 10,5 26 14 40 21 S 998,5 10 0,0
26.10.2020 16:00:00 11,8 7,0 11,0 28 15 40 21 SSW 998,4 10 0,0
26.10.2020 15:00:00 12,1 7,3 11,6 29 16 47 25 SSW 998,5 10 0,0
26.10.2020 14:00:00 12,3 7,2 12,1 31 17 40 21 SSW 998,5 10 0,0
26.10.2020 13:00:00 12,1 7,2 13,3 29 16 47 25 SSW 998,7 10 0,0
26.10.2020 12:00:00 10,7 7,0 11,2 31 17 50 27 SSW 998,8 10 0,0
26.10.2020 11:00:00 10,2 6,9 10,3 34 18 50 27 SSW 998,9 10 0,0
26.10.2020 10:00:00 9,6 6,4 9,2 29 16 47 25 SSW 998,7 10 0,0
26.10.2020 09:00:00 9,6 7,1 9,1 29 16 40 21 SSW 998,8 10 0,0
26.10.2020 08:00:00 9,1 7,1 8,0 26 14 40 21 S 998,8 10 0,0
26.10.2020 07:00:00 9,0 7,3 8,5 26 14 40 21 S 998,4 10 0,0
26.10.2020 06:00:00 9,1 7,5 8,4 18 10 29 16 S 998,2 10 0,0
26.10.2020 05:00:00 8,5 7,4 7,4 18 10 25 14 S 998,5 10 0,0
26.10.2020 04:00:00 8,2 7,1 7,3 15 8 25 14 S 998,1 10 0,0
26.10.2020 03:00:00 8,3 6,8 7,1 15 8 22 12 S 997,9 10 0,0
26.10.2020 02:00:00 8,7 7,4 7,6 16 9 25 14 S 998,3 10 0,0
26.10.2020 01:00:00 8,7 7,6 7,8 16 9 25 14 S 998,7 10 0,0
26.10.2020 00:00:00 9,4 8,2 8,6 16 9 25 14 S 999,0 10 0,0
25.10.2020 23:00:00 9,9 8,5 9,3 18 10 29 16 S 999,1 10 0,0
25.10.2020 22:00:00 10,4 8,5 9,5 16 9 25 14 S 999,3 10 0,0
25.10.2020 21:00:00 9,9 7,8 9,1 22 12 36 19 S 999,4 10 0,0
25.10.2020 20:00:00 9,7 7,9 8,9 16 9 29 16 S 999,5 10 0,0
25.10.2020 19:00:00 10,3 8,2 9,3 18 10 29 16 S 999,9 10 0,0
25.10.2020 18:00:00 9,5 7,7 8,8 21 11 32 18 S 999,8 10 0,9
25.10.2020 17:00:00 10,4 8,5 9,9 16 9 25 14 S 999,6 10 0,0
25.10.2020 16:00:00 11,7 9,5 11,2 18 10 29 16 SSW 999,3 10 0,2
25.10.2020 15:00:00 12,6 9,8 12,2 18 10 29 16 SSW 999,2 10 0,0
25.10.2020 14:00:00 12,6 9,8 12,3 21 11 36 19 SSW 999,7 10 0,0
25.10.2020 13:00:00 12,6 9,9 12,5 22 12 40 21 S 999,8 10 0,0
25.10.2020 12:00:00 12,1 9,8 11,7 24 13 36 19 S 1000,0 10 0,0
25.10.2020 11:00:00 12,1 10,0 11,9 26 14 36 19 SSW 999,9 10 0,0
25.10.2020 10:00:00 12,1 10,0 11,9 28 15 36 19 SSW 1000,2 10 0,0
25.10.2020 09:00:00 11,8 9,9 11,1 24 13 36 19 SSW 1000,0 10 0,0
25.10.2020 08:00:00 11,7 9,6 10,9 24 13 32 18 SSW 999,2 10 0,0
25.10.2020 07:00:00 11,4 10,2 10,9 22 12 32 18 S 998,4 10 0,5
25.10.2020 06:00:00 11,1 10,0 10,6 18 10 32 18 SSW 999,2 10 1,8
25.10.2020 05:00:00 11,4 10,0 10,8 24 13 54 29 SW 999,3 10 4,8
25.10.2020 04:00:00 14,5 11,2 13,4 34 18 61 33 SSW 998,7 10 0,2
25.10.2020 03:00:00 15,5 11,0 14,9 39 21 61 33 S 999,0 10 0,0
25.10.2020 02:00:00 15,6 11,4 14,9 42 23 61 33 S 999,5 10 0,0
25.10.2020 01:00:00 - - - - - - - - - - -
25.10.2020 00:00:00 16,1 11,7 15,4 42 23 61 33 S 1000,8 10 0,0
24.10.2020 23:00:00 15,9 12,0 15,2 41 22 58 31 S 1001,3 10 0,0
24.10.2020 22:00:00 15,5 12,1 14,8 37 20 58 31 S 1001,6 10 0,0
24.10.2020 21:00:00 15,0 12,1 14,4 34 18 54 29 S 1002,6 10 0,0
24.10.2020 20:00:00 14,4 11,9 13,6 31 17 47 25 S 1003,1 10 0,0
24.10.2020 19:00:00 14,5 12,1 13,6 22 12 36 19 S 1004,0 10 0,0
24.10.2020 18:00:00 14,5 12,2 14,0 26 14 40 21 S 1004,8 10 0,0
24.10.2020 17:00:00 14,5 12,0 14,1 28 15 40 21 S 1005,6 10 0,0
24.10.2020 16:00:00 14,8 11,8 14,5 37 20 50 27 S 1006,3 10 0,0
24.10.2020 15:00:00 15,1 11,3 14,7 26 14 43 23 S 1006,8 10 0,0
24.10.2020 14:00:00 14,8 10,6 14,4 28 15 40 21 SSW 1007,7 10 0,0
24.10.2020 13:00:00 14,6 10,3 14,3 28 15 47 25 SSW 1008,4 10 0,0
24.10.2020 12:00:00 14,1 10,6 14,1 28 15 43 23 SSW 1008,8 10 0,0
24.10.2020 11:00:00 13,8 11,3 13,7 24 13 36 19 SSW 1008,9 10 0,0
24.10.2020 10:00:00 12,5 11,4 12,0 22 12 32 18 S 1009,1 10 0,5
24.10.2020 09:00:00 11,7 10,6 11,5 18 10 29 16 S 1009,3 10 0,0
24.10.2020 08:00:00 11,7 10,0 11,3 22 12 29 16 S 1009,4 10 0,0
24.10.2020 07:00:00 11,6 10,2 11,1 18 10 29 16 S 1009,4 10 0,0
24.10.2020 06:00:00 11,5 10,4 10,9 21 11 32 18 SSW 1009,5 10 0,0
24.10.2020 05:00:00 11,2 10,1 10,3 15 8 25 14 SSW 1009,9 10 0,0
24.10.2020 04:00:00 11,3 10,4 10,7 18 10 29 16 SSW 1009,7 10 0,0
24.10.2020 03:00:00 11,8 10,7 11,3 24 13 32 18 SSW 1009,7 10 0,0
24.10.2020 02:00:00 12,2 11,0 11,8 24 13 36 19 SSW 1009,8 10 0,0
24.10.2020 01:00:00 12,2 10,3 11,4 22 12 32 18 SSW 1009,7 10 0,0
24.10.2020 00:00:00 11,7 10,2 10,9 18 10 29 16 SSW 1009,6 10 0,0
23.10.2020 23:00:00 12,4 10,3 11,5 21 11 29 16 SW 1009,6 10 0,0
23.10.2020 22:00:00 13,0 10,4 12,1 28 15 43 23 SW 1009,1 10 0,0
23.10.2020 21:00:00 14,1 10,9 12,7 24 13 32 18 SSW 1008,7 10 0,0
23.10.2020 20:00:00 13,2 10,9 12,0 18 10 25 14 SSW 1008,5 10 0,0
23.10.2020 19:00:00 12,5 10,9 10,7 13 7 18 10 S 1008,7 10 0,0
23.10.2020 18:00:00 13,4 10,7 11,5 13 7 22 12 SSW 1008,4 10 0,0
23.10.2020 17:00:00 14,2 10,9 13,2 18 10 32 18 SW 1008,2 10 0,0
23.10.2020 16:00:00 15,4 12,2 15,2 21 11 32 18 SSW 1008,3 10 0,0
23.10.2020 15:00:00 15,9 12,8 16,1 22 12 36 19 SSW 1008,2 10 0,0
23.10.2020 14:00:00 16,1 13,1 16,6 24 13 32 18 SSW 1008,3 10 0,0
23.10.2020 13:00:00 16,5 13,2 17,8 21 11 29 16 S 1008,2 10 0,0
23.10.2020 12:00:00 16,0 13,4 16,1 21 11 29 16 S 1009,1 10 0,0
23.10.2020 11:00:00 14,4 11,5 15,2 11 6 18 10 S 1009,5 10 0,0
23.10.2020 10:00:00 12,5 10,7 12,6 9 5 14 8 SSE 1009,9 10 0,0
23.10.2020 09:00:00 9,8 9,5 9,5 8 4 14 8 SSE 1010,1 6 0,0
23.10.2020 08:00:00 8,2 7,8 7,0 9 5 14 8 SSE 1009,9 3,0 0,0
23.10.2020 07:00:00 8,5 8,3 7,0 8 4 18 10 SSE 1009,8 2,5 0,0
23.10.2020 06:00:00 7,8 7,5 4,5 5 3 11 6 SSE 1009,9 5 0,0
23.10.2020 05:00:00 6,9 6,5 5,1 8 4 11 6 S 1010,0 3,5 0,0
23.10.2020 04:00:00 8,3 8,1 6,9 9 5 14 8 SSE 1010,6 3,7 0,0
23.10.2020 03:00:00 9,6 9,3 8,4 4 2 11 6 - 1010,8 6 0,0
23.10.2020 02:00:00 9,9 9,3 8,3 5 3 14 8 SW 1011,2 10 0,0
23.10.2020 01:00:00 8,4 7,9 7,1 13 7 14 8 SSW 1011,2 10 0,0
23.10.2020 00:00:00 9,5 8,7 7,9 13 7 14 8 SSW 1011,0 10 0,0
22.10.2020 23:00:00 10,2 9,1 8,5 9 5 18 10 SW 1011,0 10 0,0
22.10.2020 22:00:00 10,1 9,1 8,8 13 7 22 12 S 1010,8 10 0,0
22.10.2020 21:00:00 10,7 9,4 8,5 13 7 22 12 SSW 1010,5 10 0,0
22.10.2020 20:00:00 12,1 10,0 10,9 18 10 25 14 SW 1010,4 10 0,0
22.10.2020 19:00:00 13,0 10,3 11,5 18 10 29 16 SW 1010,2 10 0,0
22.10.2020 18:00:00 13,3 10,6 12,0 18 10 25 14 SW 1009,9 10 0,0
22.10.2020 17:00:00 14,7 11,0 13,8 22 12 32 18 SW 1009,6 10 0,0
22.10.2020 16:00:00 15,2 10,9 15,1 22 12 40 21 SW 1009,3 10 0,0
22.10.2020 15:00:00 15,5 11,7 15,8 26 14 36 19 SSW 1009,1 10 0,1

tt = temperature
td = dewpoint
tt 5cm = temperature 5cm
ff = wind speed
fx = gusts
dd = wind direction
ppp = reduced air pressure
vv = visibility
rr = precipitation

Next stations